Hinckley, MN

11:31 AM CDT on October 17, 2019 (GMT -0500)
Hinckley

Weather History for K04W - September, 2019

Change the Weather History Date:

Sunday, September 22, 2019

  Actual Average (KJMR) Record (KJMR)
Temperature  
Mean Temperature 58 °F -  
Max Temperature 62 °F 64 °F 89 °F (1936)
Min Temperature 53 °F 37 °F 20 °F (1974)
Degree Days  
Heating Degree Days 8    
Growing Degree Days 8 (Base 50)    
Moisture  
Dew Point 55 °F    
Average Humidity 87    
Maximum Humidity 100    
Minimum Humidity 68    
Precipitation  
Precipitation 0.01 in - - ()
Sea Level Pressure  
Sea Level Pressure 29.84 in    
Wind  
Wind Speed 5 mph (WSW)    
Max Wind Speed 10 mph    
Max Gust Speed 9 mph    
Visibility 10 miles    
Events      
Averages and records for this station are not official NWS values.
T = Trace of Precipitation, MM = Missing Value Source: NWS Daily Summary

Daily Weather History Graph

Daily Weather History Graph

Search for Another Location

Airport or City:

Astronomy

Sep. 22, 2019 Rise Set
Actual Time 6:58 AM CDT 7:09 PM CDT
Civil Twilight 6:28 AM CDT 7:39 PM CDT
Nautical Twilight 5:53 AM CDT 8:14 PM CDT
Astronomical Twilight 5:17 AM CDT 8:50 PM CDT
Moon No Moon Rise 3:26 PM CDT (9/22)
Length of Visible Light 13h 10m
Length of Day
12h 11m
Last Quarter, 44% of the Moon is Illuminated
Sep 22
Last Quarter
Sep 28
New
Oct 5
First Quarter
Oct 13
Full
Oct 21
Last Quarter

Hourly Weather History & Observations

Time (CDT) Temp. Dew Point Humidity Pressure Visibility Wind Dir Wind Speed Gust Speed Precip Events Conditions
12:15 AM 62.6 °F 62.6 °F 100% 29.79 in 10.0 mi SW 5.8 mph - N/A   Clear
12:16 AM 62.6 °F 62.6 °F 100% 29.79 in 10.0 mi SW 5.8 mph - N/A   Clear
12:35 AM 62.6 °F 62.6 °F 100% 29.79 in 10.0 mi WSW 6.9 mph - N/A   Clear
12:39 AM 62.6 °F 62.6 °F 100% 29.79 in 10.0 mi WSW 8.1 mph - N/A   Clear
12:57 AM 62.6 °F 60.8 °F 94% 29.79 in 10.0 mi WSW 5.8 mph - N/A   Clear
1:15 AM 60.8 °F 60.8 °F 100% 29.79 in 10.0 mi WSW 4.6 mph - N/A   Clear
1:35 AM 60.8 °F 60.8 °F 100% 29.80 in 10.0 mi WSW 5.8 mph - N/A   Clear
1:36 AM 60.8 °F 60.8 °F 100% 29.80 in 10.0 mi WSW 5.8 mph - N/A   Clear
1:55 AM 60.8 °F 60.8 °F 100% 29.79 in 10.0 mi SW 5.8 mph - N/A   Clear
1:56 AM 60.8 °F 60.8 °F 100% 29.79 in 10.0 mi SW 5.8 mph - N/A   Clear
2:18 AM 59.0 °F 59.0 °F 100% 29.80 in 10.0 mi WSW 4.6 mph - N/A   Clear
2:37 AM 59.0 °F 59.0 °F 100% 29.80 in 10.0 mi SW 4.6 mph - N/A   Clear
2:56 AM 60.8 °F 59.0 °F 94% 29.80 in 10.0 mi SW 4.6 mph - N/A   Clear
3:15 AM 60.8 °F 59.0 °F 94% 29.81 in 10.0 mi SW 5.8 mph - N/A   Clear
3:16 AM 60.8 °F 59.0 °F 94% 29.81 in 10.0 mi SW 5.8 mph - N/A   Clear
3:35 AM 59.0 °F 59.0 °F 100% 29.81 in 10.0 mi WSW 5.8 mph - N/A   Clear
3:39 AM 59.0 °F 59.0 °F 100% 29.81 in 10.0 mi WSW 4.6 mph - N/A   Clear
3:58 AM 59.0 °F 59.0 °F 100% 29.81 in 10.0 mi SW 3.5 mph - N/A   Clear
4:15 AM 59.0 °F 59.0 °F 100% 29.81 in 10.0 mi WSW 4.6 mph - N/A   Scattered Clouds
4:35 AM 59.0 °F 59.0 °F 100% 29.80 in 10.0 mi WSW 3.5 mph - N/A   Scattered Clouds
4:36 AM 59.0 °F 59.0 °F 100% 29.80 in 10.0 mi WSW 3.5 mph - N/A   Scattered Clouds
4:55 AM 59.0 °F 59.0 °F 100% 29.81 in 10.0 mi WSW 4.6 mph - N/A   Scattered Clouds
4:56 AM 59.0 °F 59.0 °F 100% 29.81 in 10.0 mi WSW 4.6 mph - N/A   Scattered Clouds
5:19 AM 59.0 °F 59.0 °F 100% 29.81 in 10.0 mi SW 3.5 mph - N/A   Scattered Clouds
5:36 AM 57.2 °F 57.2 °F 100% 29.81 in 10.0 mi SW 3.5 mph - N/A   Clear
5:56 AM 57.2 °F 57.2 °F 100% 29.81 in 10.0 mi WSW 3.5 mph - N/A   Clear
6:15 AM 57.2 °F 57.2 °F 100% 29.82 in 10.0 mi WSW 5.8 mph - N/A   Clear
6:16 AM 57.2 °F 57.2 °F 100% 29.82 in 10.0 mi WSW 5.8 mph - N/A   Clear
6:35 AM 59.0 °F 59.0 °F 100% 29.82 in 10.0 mi WSW 5.8 mph - N/A   Clear
6:39 AM 59.0 °F 59.0 °F 100% 29.82 in 10.0 mi West 4.6 mph - N/A   Clear
6:57 AM 57.2 °F 57.2 °F 100% 29.82 in 10.0 mi WSW 4.6 mph - N/A   Clear
7:16 AM 55.4 °F 55.4 °F 100% 29.82 in 10.0 mi Calm Calm - N/A   Clear
7:35 AM 55.4 °F 55.4 °F 100% 29.83 in 7.0 mi Calm Calm - N/A   Clear
7:36 AM 55.4 °F 55.4 °F 100% 29.83 in 7.0 mi Calm Calm - N/A   Clear
7:55 AM 55.4 °F 55.4 °F 100% 29.84 in 5.0 mi WSW 4.6 mph - N/A   Clear
7:56 AM 55.4 °F 55.4 °F 100% 29.84 in 5.0 mi WSW 4.6 mph - N/A   Clear
8:19 AM 55.4 °F 55.4 °F 100% 29.84 in 7.0 mi Calm Calm - N/A   Clear
8:36 AM 59.0 °F 59.0 °F 100% 29.84 in 10.0 mi WNW 3.5 mph - N/A   Clear
8:56 AM 59.0 °F 55.4 °F 88% 29.84 in 10.0 mi West 4.6 mph - N/A   Clear
9:15 AM 60.8 °F 53.6 °F 77% 29.84 in 10.0 mi West 8.1 mph - N/A   Clear
9:16 AM 60.8 °F 53.6 °F 77% 29.84 in 10.0 mi West 8.1 mph - N/A   Clear
9:35 AM 60.8 °F 51.8 °F 72% 29.84 in 10.0 mi WNW 8.1 mph - N/A   Clear
9:39 AM 60.8 °F 51.8 °F 72% 29.84 in 10.0 mi WNW 8.1 mph - N/A   Clear
9:58 AM 60.8 °F 51.8 °F 72% 29.85 in 10.0 mi WNW 6.9 mph - N/A   Clear
10:15 AM 62.6 °F 51.8 °F 68% 29.86 in 10.0 mi West 5.8 mph - N/A   Clear
10:35 AM 60.8 °F 51.8 °F 72% 29.86 in 10.0 mi West 10.4 mph - 0.01 in   Scattered Clouds
10:36 AM 60.8 °F 51.8 °F 72% 29.86 in 10.0 mi West 9.2 mph - 0.01 in   Scattered Clouds
10:55 AM 60.8 °F 51.8 °F 72% 29.86 in 10.0 mi WNW 6.9 mph - 0.01 in   Scattered Clouds
10:56 AM 60.8 °F 51.8 °F 72% 29.86 in 10.0 mi WNW 6.9 mph - 0.01 in   Scattered Clouds
11:19 AM 60.8 °F 51.8 °F 72% 29.87 in 10.0 mi West 5.8 mph - N/A   Clear
11:36 AM 62.6 °F 51.8 °F 68% 29.88 in 10.0 mi WNW 8.1 mph - N/A   Clear
11:55 AM 60.8 °F 51.8 °F 72% 29.86 in 10.0 mi West 5.8 mph - N/A   Scattered Clouds
11:56 AM 60.8 °F 51.8 °F 72% 29.86 in 10.0 mi West 5.8 mph - N/A   Scattered Clouds
12:15 PM 60.8 °F 50.0 °F 68% 29.86 in 10.0 mi WNW 8.1 mph - N/A   Scattered Clouds
12:35 PM 60.8 °F 50.0 °F 68% 29.86 in 10.0 mi WNW 5.8 mph - N/A   Scattered Clouds
12:40 PM 60.8 °F 50.0 °F 68% 29.86 in 10.0 mi West 3.5 mph - N/A   Scattered Clouds
12:57 PM 62.6 °F 51.8 °F 68% 29.85 in 10.0 mi WSW 6.9 mph - N/A   Scattered Clouds
1:15 PM 60.8 °F 51.8 °F 72% 29.83 in 10.0 mi NNW 4.6 mph - N/A   Scattered Clouds
1:35 PM 60.8 °F 50.0 °F 68% 29.81 in 10.0 mi NW 4.6 mph - N/A   Scattered Clouds
1:36 PM 60.8 °F 50.0 °F 68% 29.81 in 10.0 mi NNW 5.8 mph - N/A   Scattered Clouds
1:55 PM 62.6 °F 51.8 °F 68% 29.84 in 10.0 mi West 6.9 mph - N/A   Scattered Clouds
1:56 PM 62.6 °F 51.8 °F 68% 29.84 in 10.0 mi West 5.8 mph 9.2 mph N/A   Scattered Clouds
2:18 PM 62.6 °F 51.8 °F 68% 29.84 in 10.0 mi WNW 4.6 mph - N/A   Mostly Cloudy
2:36 PM 60.8 °F 51.8 °F 72% 29.85 in 10.0 mi West 9.2 mph - N/A   Mostly Cloudy
2:55 PM 60.8 °F 51.8 °F 72% 29.85 in 10.0 mi West 6.9 mph - N/A   Mostly Cloudy
2:56 PM 60.8 °F 51.8 °F 72% 29.85 in 10.0 mi West 6.9 mph - N/A   Overcast
3:15 PM 60.8 °F 51.8 °F 72% 29.85 in 10.0 mi West 10.4 mph - N/A   Mostly Cloudy
3:16 PM 60.8 °F 51.8 °F 72% 29.85 in 10.0 mi West 9.2 mph - N/A   Mostly Cloudy
3:35 PM 60.8 °F 51.8 °F 72% 29.84 in 10.0 mi WNW 8.1 mph - N/A   Mostly Cloudy
3:40 PM 60.8 °F 51.8 °F 72% 29.84 in 10.0 mi WNW 6.9 mph - N/A   Mostly Cloudy
3:57 PM 60.8 °F 51.8 °F 72% 29.86 in 10.0 mi West 5.8 mph - N/A   Overcast
4:16 PM 59.0 °F 51.8 °F 77% 29.85 in 10.0 mi West 5.8 mph - N/A   Overcast
4:35 PM 59.0 °F 51.8 °F 77% 29.85 in 10.0 mi West 5.8 mph - N/A   Overcast
4:36 PM 59.0 °F 51.8 °F 77% 29.85 in 10.0 mi West 6.9 mph - N/A   Overcast
4:55 PM 59.0 °F 51.8 °F 77% 29.85 in 10.0 mi West 5.8 mph - N/A   Overcast
4:59 PM 59.0 °F 51.8 °F 77% 29.85 in 10.0 mi West 4.6 mph - N/A   Overcast
5:17 PM 59.0 °F 53.6 °F 82% 29.86 in 10.0 mi WSW 4.6 mph - N/A   Overcast
5:35 PM 59.0 °F 53.6 °F 82% 29.88 in 10.0 mi SW 5.8 mph - N/A   Mostly Cloudy
5:55 PM 59.0 °F 53.6 °F 82% 29.87 in 10.0 mi WSW 5.8 mph - N/A   Clear
5:56 PM 59.0 °F 53.6 °F 82% 29.87 in 10.0 mi WSW 5.8 mph - N/A   Clear
6:15 PM 59.0 °F 53.6 °F 82% 29.86 in 10.0 mi WSW 4.6 mph - N/A   Clear
6:16 PM 59.0 °F 53.6 °F 82% 29.86 in 10.0 mi WSW 4.6 mph - N/A   Clear
6:39 PM 59.0 °F 53.6 °F 82% 29.86 in 10.0 mi West 5.8 mph - N/A   Clear
6:56 PM 57.2 °F 53.6 °F 88% 29.86 in 10.0 mi West 5.8 mph - N/A   Clear
7:15 PM 57.2 °F 53.6 °F 88% 29.86 in 10.0 mi West 4.6 mph - N/A   Scattered Clouds
7:16 PM 57.2 °F 53.6 °F 88% 29.86 in 10.0 mi West 4.6 mph - N/A   Scattered Clouds
7:35 PM 57.2 °F 53.6 °F 88% 29.86 in 10.0 mi Calm Calm - N/A   Mostly Cloudy
7:36 PM 57.2 °F 53.6 °F 88% 29.86 in 10.0 mi Calm Calm - N/A   Mostly Cloudy
7:55 PM 57.2 °F 53.6 °F 88% 29.86 in 10.0 mi West 4.6 mph - N/A   Mostly Cloudy
7:59 PM 57.2 °F 53.6 °F 88% 29.86 in 10.0 mi West 4.6 mph - N/A   Mostly Cloudy
8:16 PM 55.4 °F 53.6 °F 94% 29.86 in 10.0 mi West 4.6 mph - N/A   Scattered Clouds
8:36 PM 55.4 °F 53.6 °F 94% 29.88 in 10.0 mi West 4.6 mph - N/A   Scattered Clouds
8:55 PM 55.4 °F 53.6 °F 94% 29.88 in 10.0 mi SW 3.5 mph - N/A   Clear
8:56 PM 55.4 °F 53.6 °F 94% 29.88 in 10.0 mi SW 3.5 mph - N/A   Clear
9:15 PM 55.4 °F 53.6 °F 94% 29.88 in 10.0 mi Calm Calm - N/A   Clear
9:19 PM 55.4 °F 53.6 °F 94% 29.88 in 10.0 mi SW 3.5 mph - N/A   Clear
9:38 PM 55.4 °F 53.6 °F 94% 29.88 in 10.0 mi SW 5.8 mph - N/A   Clear
9:55 PM 55.4 °F 53.6 °F 94% 29.88 in 10.0 mi WSW 4.6 mph - N/A   Clear
10:15 PM 53.6 °F 53.6 °F 100% 29.89 in 10.0 mi WSW 4.6 mph - N/A   Clear
10:16 PM 53.6 °F 53.6 °F 100% 29.89 in 10.0 mi WSW 4.6 mph - N/A   Clear
10:35 PM 53.6 °F 53.6 °F 100% 29.90 in 10.0 mi WSW 3.5 mph - N/A   Clear
10:36 PM 53.6 °F 53.6 °F 100% 29.90 in 10.0 mi WSW 3.5 mph - N/A   Clear
10:58 PM 53.6 °F 53.6 °F 100% 29.90 in 10.0 mi West 5.8 mph - N/A   Clear
11:16 PM 53.6 °F 53.6 °F 100% 29.90 in 10.0 mi West 3.5 mph - N/A   Clear
11:36 PM 53.6 °F 53.6 °F 100% 29.90 in 10.0 mi Calm Calm - N/A   Clear
11:55 PM 53.6 °F 53.6 °F 100% 29.90 in 10.0 mi SW 3.5 mph - N/A   Clear
11:56 PM 53.6 °F 53.6 °F 100% 29.90 in 10.0 mi SW 3.5 mph - N/A   Clear